Torna al catalogo

USA 40 R/B DEB

AttivoHEO
NORAD 23380·DEBRIS·🇺🇸 United States

Lanciato Aug 8, 1989 da Cape Canaveral Space Force Station

Loading…

Prossimi Passaggi (prossime 24 ore)

TLE

AggiornatoSource: Space-Track

Epoca: Sep 10, 2026, 23:39 UTC

1 23380U 89061BC  26253.98582668  .00006691  00000-0  46656-2 0  9991
2 23380  57.0266 251.0030 2932960   0.4218 359.8234  9.02591616 93398

Traccia USA 40 R/B DEB in tempo reale con AllMySat

Download on the App Store